Regional Weather Roundup
Issued by NWS

Home | Current Version | Previous Version | Graphics & Text | Print | Product List | Glossary On
Versions: 1 2 3 4 5 6 7 8 9 10 11 12 13 14 15 16 17 18 19 20 21 22 23 24 25 26 27 28 29 30 31 32 33 34 35 36 37 38 39 40 41 42 43 44 45 46 47 48 49 50
000
ASUS43 KLSX 200007
RWRMO

WEATHER SUMMARY FOR MISSOURI
NATIONAL WEATHER SERVICE SPRINGFIELD MO
700 PM CDT THU APR 19 2018

NOTE: "FAIR" INDICATES FEW OR NO CLOUDS BELOW 12,000 FEET WITH NO
       SIGNIFICANT WEATHER AND/OR OBSTRUCTIONS TO VISIBILITY.
       CURRENT SKY AND/OR WEATHER CONDITIONS ARE NOT AVAILABLE FOR
       CHILLICOTHE AND FARMINGTON.

MOZ001>031-035>038-043-044-053-054-200100-
...NORTHERN AND WESTERN MISSOURI...

CITY           SKY/WX    TMP DP  RH WIND       PRES   REMARKS
KANSAS CTY INT MOSUNNY   56  28  34 E12       30.36S
6HR MIN TEMP:  53; 6HR MAX TEMP:  59;

KANSAS C DTWN  SUNNY     59  29  31 E7G18     30.35S
6HR MIN TEMP:  52; 6HR MAX TEMP:  60;

LEE`S SUMMIT   SUNNY     56  30  37 E12       30.36F
6HR MIN TEMP:  51; 6HR MAX TEMP:  59;

ST JOSEPH      SUNNY     57  29  34 E9        30.36F
6HR MIN TEMP:  54; 6HR MAX TEMP:  60;

CHILLICOTHE      N/A     57  29  34 VRB5      30.40S
6HR MIN TEMP:  52; 6HR MAX TEMP:  59;

KIRKSVILLE     CLEAR     54  30  40 NE7       30.41S
6HR MIN TEMP:  50; 6HR MAX TEMP:  57;


$$
MOZ066>068-077>081-088>096-101>105-200100-
...SOUTHWEST MISSOURI...

CITY           SKY/WX    TMP DP  RH WIND       PRES   REMARKS
SPRINGFIELD    CLEAR     54  30  40 NE10      30.34F
6HR MIN TEMP:  49; 6HR MAX TEMP:  57;

JOPLIN         CLOUDY    54  33  45 NE8       30.34S
6HR MIN TEMP:  50; 6HR MAX TEMP:  57;

BRANSON        MOCLDY    54  28  37 NE7       30.35S

$$
MOZ032>034-039>042-045>050-055>058-069>072-200100-
...CENTRAL MISSOURI...

CITY           SKY/WX    TMP DP  RH WIND       PRES   REMARKS
COLUMBIA       CLEAR     54  29  38 E7        30.39S
6HR MIN TEMP:  49; 6HR MAX TEMP:  57;

JEFFERSON CITY CLEAR     56  28  34 VRB6G16   30.39F
6HR MIN TEMP:  50; 6HR MAX TEMP:  58;

ROLLA          CLEAR     53  29  39 NE8       30.38S
6HR MIN TEMP:  47; 6HR MAX TEMP:  56;

SEDALIA        CLEAR     55  32  41 E8        30.39F
6HR MIN TEMP:  51; 6HR MAX TEMP:  57;

WHITEMAN AFB   PTCLDY    55  29  38 E12       30.33F
WARRENSBURG    CLEAR     54  30  40 E8        30.37F
OSAGE BEACH    CLEAR     54  30  40 E8        30.38F

$$
MOZ051-052-059>065-200100-
...EAST CENTRAL MISSOURI...

CITY           SKY/WX    TMP DP  RH WIND       PRES   REMARKS
ST LOUIS INTL  PTCLDY    54  30  40 N8        30.39F
6HR MIN TEMP:  47; 6HR MAX TEMP:  56;

SPIRIT OF STL  CLEAR     55  30  38 NE7       30.38F
6HR MIN TEMP:  48; 6HR MAX TEMP:  57;

ST CHARLES     CLEAR     55  31  39 N6        30.38F
6HR MIN TEMP:  49; 6HR MAX TEMP:  58;


$$
MOZ072>076-082>087-097>100-106>115-200100-
...SOUTH CENTRAL AND SOUTHEAST MISSOURI...

CITY           SKY/WX    TMP DP  RH WIND       PRES   REMARKS
CAPE GIRARDEAU FAIR      52  33  48 NE10      30.38R
6HR MIN TEMP:  48; 6HR MAX TEMP:  54;

FARMINGTON       N/A     50  31  48 N9        30.39S
6HR MIN TEMP:  47; 6HR MAX TEMP:  52;

POPLAR BLUFF   FAIR      52  34  50 NE12      30.38R
6HR MIN TEMP:  50; 6HR MAX TEMP:  56;

WEST PLAINS    CLEAR     53  29  39 NE9       30.36S
6HR MIN TEMP:  49; 6HR MAX TEMP:  57;


$$



USA.gov is the U.S. government's official web portal to all federal, state and local government web resources and services.